,,Stat1,,Stat2,,Stat3,,Stat4,,Wind1,,Wind1,
time,status,PR1M_SUM,status,RH1M_AVG,status,SR1M_AVG,status,TA1M_AVG,status,W1dAve1m,status,W1sAve1m,
2000-03-15, 00:01:00,VALID,0,VALID,95.9044,VALID,-0.0339617,VALID,18.0661,VALID,184,VALID,0,
2000-03-15, 00:02:00,VALID,0,VALID,96.221,VALID,-0.0679233,VALID,18.0569,VALID,195,VALID,0.717014,
2000-03-15, 00:03:00,VALID,0,VALID,96.1778,VALID,-0.0339617,VALID,18.0338,VALID,201,VALID,0.809462,
2000-03-15, 00:04:00,VALID,0,VALID,96.2299,VALID,0,VALID,18.0306,VALID,197,VALID,0.972656,
2000-03-15, 00:05:01,VALID,0,VALID,96.5288,VALID,0.0169808,VALID,18.0329,VALID,195,VALID,1.1274,
2000-03-15, 00:06:00,VALID,0,VALID,96.6966,VALID,0.0849042,VALID,18.0421,VALID,190,VALID,1.3457,
2000-03-15, 00:07:00,VALID,0,VALID,96.7551,VALID,0.0849042,VALID,18.0709,VALID,193,VALID,1.43771,
2000-03-15, 00:08:00,VALID,0,VALID,96.7526,VALID,0.101885,VALID,18.1134,VALID,185,VALID,1.42788,
2000-03-15, 00:09:00,VALID,0,VALID,96.9573,VALID,0.0509425,VALID,18.1556,VALID,188,VALID,1.41992,
2000-03-15, 00:10:00,VALID,0,VALID,97.0361,VALID,0.0849042,VALID,18.162,VALID,201,VALID,1.46461,
2000-03-15, 00:11:00,VALID,0,VALID,97.0679,VALID,0.101885,VALID,18.1745,VALID,209,VALID,1.17318,
2000-03-15, 00:12:00,VALID,0,VALID,97.0222,VALID,0.0849042,VALID,18.1874,VALID,217,VALID,1.45415,
2000-03-15, 00:13:00,VALID,0,VALID,96.7602,VALID,0.0849042,VALID,18.21,VALID,209,VALID,1.38061,
2000-03-15, 00:14:00,VALID,0,VALID,96.4919,VALID,0.0679233,VALID,18.2264,VALID,200,VALID,1.19311,
2000-03-15, 00:15:00,VALID,0,VALID,96.1727,VALID,0.0509425,VALID,18.2197,VALID,186,VALID,1.66913,
2000-03-15, 00:16:01,VALID,0,VALID,95.7467,VALID,0.101885,VALID,18.2423,VALID,188,VALID,1.51387,
2000-03-15, 00:17:00,VALID,0,VALID,95.4695,VALID,0.0169808,VALID,18.2586,VALID,191,VALID,1.53125,
2000-03-15, 00:18:00,VALID,0,VALID,95.0613,VALID,0.0509425,VALID,18.2911,VALID,194,VALID,1.28205,
2000-03-15, 00:19:00,VALID,0,VALID,94.8897,VALID,0.0339617,VALID,18.2911,VALID,201,VALID,1.12615,
2000-03-15, 00:20:00,VALID,0,VALID,94.8846,VALID,-0.0169808,VALID,18.3054,VALID,209,VALID,1.33919,
2000-03-15, 00:21:00,VALID,0,VALID,94.8363,VALID,-0.0169808,VALID,18.2762,VALID,200,VALID,0.983941,
2000-03-15, 00:22:00,VALID,0,VALID,94.7752,VALID,-0.0339617,VALID,18.2632,VALID,210,VALID,1.51783,
2000-03-15, 00:23:00,VALID,0,VALID,94.6455,VALID,-0.0679233,VALID,18.2732,VALID,200,VALID,1.24359,
2000-03-15, 00:24:00,VALID,0,VALID,94.526,VALID,-0.0509425,VALID,18.2764,VALID,216,VALID,1.37563,
2000-03-15, 00:25:00,VALID,0,VALID,94.4802,VALID,-0.0169808,VALID,18.2826,VALID,201,VALID,1.30248,
2000-03-15, 00:26:00,VALID,0,VALID,94.4828,VALID,-0.0169808,VALID,18.2925,VALID,203,VALID,0.960321,
2000-03-15, 00:27:01,VALID,0,VALID,94.3938,VALID,-0.0339617,VALID,18.3082,VALID,201,VALID,0.811699,
2000-03-15, 00:28:00,VALID,0,VALID,94.231,VALID,-0.0849042,VALID,18.328,VALID,196,VALID,1.24384,
2000-03-15, 00:29:00,VALID,0,VALID,93.9156,VALID,-0.0509425,VALID,18.373,VALID,193,VALID,1.23459,
2000-03-15, 00:30:00,VALID,0,VALID,93.524,VALID,-0.0509425,VALID,18.4346,VALID,193,VALID,1.14423,
2000-03-15, 00:31:00,VALID,0,VALID,93.1425,VALID,-0.0509425,VALID,18.4826,VALID,195,VALID,1.21432,
2000-03-15, 00:32:00,VALID,0,VALID,92.8348,VALID,-0.0339617,VALID,18.5411,VALID,193,VALID,0.977734,
2000-03-15, 00:33:00,VALID,0,VALID,92.9161,VALID,-0.0339617,VALID,18.5312,VALID,197,VALID,1.11437,
2000-03-15, 00:34:00,VALID,0,VALID,92.9886,VALID,-0.0339617,VALID,18.5248,VALID,200,VALID,1.06168,
2000-03-15, 00:35:00,VALID,0,VALID,93.084,VALID,0,VALID,18.5301,VALID,198,VALID,1.4125,
2000-03-15, 00:36:00,VALID,0,VALID,93.2455,VALID,0.0509425,VALID,18.549,VALID,204,VALID,1.4084,
2000-03-15, 00:37:00,VALID,0,VALID,93.1209,VALID,0.0339617,VALID,18.5882,VALID,205,VALID,1.19095,
2000-03-15, 00:38:01,VALID,0,VALID,92.8449,VALID,0.0509425,VALID,18.6334,VALID,197,VALID,1.22938,
2000-03-15, 00:39:00,VALID,0,VALID,92.5143,VALID,0.0679233,VALID,18.6654,VALID,195,VALID,1.36883,
2000-03-15, 00:40:00,VALID,0,VALID,92.2193,VALID,0.101885,VALID,18.6783,VALID,188,VALID,1.07131,
2000-03-15, 00:41:00,VALID,0,VALID,92.3249,VALID,0.0679233,VALID,18.656,VALID,180,VALID,0.973357,
2000-03-15, 00:42:00,VALID,0,VALID,92.5932,VALID,0.0509425,VALID,18.6135,VALID,180,VALID,0.942779,
2000-03-15, 00:43:00,VALID,0,VALID,92.5919,VALID,0.101885,VALID,18.5579,VALID,184,VALID,1.15625,
2000-03-15, 00:44:00,VALID,0,VALID,92.0858,VALID,0.101885,VALID,18.5201,VALID,185,VALID,1.48217,
2000-03-15, 00:45:00,VALID,0,VALID,91.4385,VALID,0.0849042,VALID,18.4941,VALID,192,VALID,1.26282,
2000-03-15, 00:46:00,VALID,0,VALID,91.071,VALID,0.0679233,VALID,18.4814,VALID,193,VALID,1.23966,
2000-03-15, 00:47:00,VALID,0,VALID,90.7646,VALID,0.0339617,VALID,18.4749,VALID,194,VALID,1.2921,
2000-03-15, 00:48:01,VALID,0,VALID,90.8803,VALID,0.0509425,VALID,18.4687,VALID,183,VALID,0.932292,
2000-03-15, 00:49:01,VALID,0,VALID,91.1601,VALID,0.0169808,VALID,18.4364,VALID,194,VALID,1.10016,
2000-03-15, 00:50:00,VALID,0,VALID,91.1575,VALID,0.0509425,VALID,18.4332,VALID,177,VALID,1.05809,
2000-03-15, 00:51:00,VALID,0,VALID,91.3317,VALID,0.0849042,VALID,18.3975,VALID,169,VALID,1.00253,
2000-03-15, 00:52:00,VALID,0,VALID,91.7844,VALID,0.0849042,VALID,18.352,VALID,174,VALID,0.841947,
2000-03-15, 00:53:00,VALID,0,VALID,92.1061,VALID,0.0849042,VALID,18.2713,VALID,185,VALID,0.663857,
2000-03-15, 00:54:00,VALID,0,VALID,92.527,VALID,0.0679233,VALID,18.198,VALID,201,VALID,0.674679,
2000-03-15, 00:55:00,VALID,0,VALID,93.0204,VALID,0.0679233,VALID,18.1067,VALID,210,VALID,0.660985,
2000-03-15, 00:56:00,VALID,0,VALID,93.3981,VALID,0.0339617,VALID,18.0615,VALID,193,VALID,1.03168,
2000-03-15, 00:57:00,VALID,0,VALID,93.3714,VALID,0.101885,VALID,18.0587,VALID,191,VALID,1.25401,
2000-03-15, 00:58:00,VALID,0,VALID,93.0204,VALID,0.0679233,VALID,18.0682,VALID,196,VALID,0.952069,
2000-03-15, 00:59:00,VALID,0,VALID,92.9161,VALID,0.0849042,VALID,18.1007,VALID,183,VALID,0.930664,
2000-03-15, 01:00:01,VALID,0,VALID,92.5906,VALID,0.0339617,VALID,18.1168,VALID,166,VALID,0.724609,
2000-03-15, 01:01:00,VALID,0,VALID,92.7356,VALID,0.0849042,VALID,18.091,VALID,162,VALID,0.655222,
2000-03-15, 01:02:00,VALID,0,VALID,93.1183,VALID,0.0679233,VALID,18.0294,VALID,166,VALID,0.635045,
2000-03-15, 01:03:00,VALID,0,VALID,93.5443,VALID,0.0679233,VALID,17.9879,VALID,171,VALID,0.620508,
2000-03-15, 01:04:00,VALID,0,VALID,93.8012,VALID,0.0509425,VALID,17.9457,VALID,176,VALID,0.831572,
2000-03-15, 01:05:00,VALID,0,VALID,93.7211,VALID,0.0339617,VALID,17.9141,VALID,192,VALID,0.770182,
2000-03-15, 01:06:00,VALID,0,VALID,93.9347,VALID,-0.0509425,VALID,17.8657,VALID,198,VALID,0.908717,
2000-03-15, 01:07:00,VALID,0,VALID,93.9805,VALID,-0.0339617,VALID,17.8825,VALID,195,VALID,0.954127,
2000-03-15, 01:08:00,VALID,0,VALID,93.8571,VALID,0,VALID,17.8858,VALID,197,VALID,0.992588,
2000-03-15, 01:09:00,VALID,0,VALID,93.7986,VALID,-0.0169808,VALID,17.8784,VALID,190,VALID,0.926098,
2000-03-15, 01:10:01,VALID,0,VALID,93.749,VALID,-0.0169808,VALID,17.918,VALID,187,VALID,1.03945,
2000-03-15, 01:11:00,VALID,0,VALID,93.454,VALID,-0.0509425,VALID,17.9662,VALID,179,VALID,1.04287,
2000-03-15, 01:12:00,VALID,0,VALID,93.1018,VALID,0.0169808,VALID,18.0409,VALID,176,VALID,1.01883,
2000-03-15, 01:13:00,VALID,0,VALID,92.7292,VALID,0,VALID,18.0988,VALID,181,VALID,0.975643,
2000-03-15, 01:14:00,VALID,0,VALID,92.2435,VALID,-0.0509425,VALID,18.1664,VALID,189,VALID,1.07313,
2000-03-15, 01:15:00,VALID,0,VALID,91.7119,VALID,-0.0169808,VALID,18.2506,VALID,200,VALID,1.20616,
2000-03-15, 01:16:00,VALID,0,VALID,91.2389,VALID,-0.0509425,VALID,18.3052,VALID,193,VALID,1.16747,
2000-03-15, 01:17:00,VALID,0,VALID,90.7697,VALID,-0.0509425,VALID,18.3633,VALID,188,VALID,1.17488,
2000-03-15, 01:18:00,VALID,0,VALID,90.4836,VALID,-0.0339617,VALID,18.4182,VALID,182,VALID,1.18011,
2000-03-15, 01:19:00,VALID,0,VALID,90.3589,VALID,-0.0509425,VALID,18.4505,VALID,188,VALID,0.888021,
2000-03-15, 01:20:00,VALID,0,VALID,90.4454,VALID,-0.0339617,VALID,18.4537,VALID,194,VALID,0.521176,
2000-03-15, 01:21:00,VALID,0,VALID,90.5866,VALID,-0.0339617,VALID,18.4512,VALID,207,VALID,0.551683,
2000-03-15, 01:22:00,VALID,0,VALID,90.7493,VALID,-0.0169808,VALID,18.415,VALID,211,VALID,0.500947,
2000-03-15, 01:23:00,VALID,0,VALID,91.0253,VALID,0,VALID,18.3822,VALID,202,VALID,0.604818,
2000-03-15, 01:24:00,VALID,0,VALID,91.0431,VALID,0,VALID,18.3569,VALID,190,VALID,0.815705,
2000-03-15, 01:25:00,VALID,0,VALID,91.2389,VALID,0.0169808,VALID,18.3184,VALID,187,VALID,0.872677,
2000-03-15, 01:26:00,VALID,0,VALID,91.333,VALID,0,VALID,18.2602,VALID,184,VALID,0.950195,
2000-03-15, 01:27:00,VALID,0,VALID,91.4805,VALID,0,VALID,18.2146,VALID,178,VALID,0.883247,
2000-03-15, 01:28:00,VALID,0,VALID,91.6051,VALID,0,VALID,18.1821,VALID,179,VALID,0.818257,
2000-03-15, 01:29:00,VALID,0,VALID,91.6369,VALID,0,VALID,18.1696,VALID,181,VALID,0.829018,
2000-03-15, 01:30:00,VALID,0,VALID,91.7819,VALID,0,VALID,18.1366,VALID,182,VALID,0.751367,
2000-03-15, 01:31:00,VALID,0,VALID,92.0019,VALID,0,VALID,18.1182,VALID,183,VALID,0.647748,
2000-03-15, 01:32:00,VALID,0,VALID,92.2066,VALID,0,VALID,18.0857,VALID,187,VALID,0.70204,
2000-03-15, 01:33:00,VALID,0,VALID,92.3439,VALID,0,VALID,18.0633,VALID,181,VALID,0.642887,
2000-03-15, 01:34:00,VALID,0,VALID,92.0108,VALID,-0.0169808,VALID,18.002,VALID,168,VALID,0.541466,
2000-03-15, 01:35:00,VALID,0,VALID,92.555,VALID,0,VALID,17.8533,VALID,161,VALID,0.605369,
2000-03-15, 01:36:00,VALID,0,VALID,93.8444,VALID,-0.0169808,VALID,17.7633,VALID,175,VALID,0.822846,
2000-03-15, 01:37:00,VALID,0,VALID,94.306,VALID,-0.0509425,VALID,17.7241,VALID,191,VALID,0.975586,
2000-03-15, 01:38:00,VALID,0,VALID,94.1382,VALID,-0.0169808,VALID,17.7437,VALID,199,VALID,0.77484,
2000-03-15, 01:39:00,VALID,0,VALID,94.0568,VALID,-0.0339617,VALID,17.7467,VALID,205,VALID,0.623598,
2000-03-15, 01:40:00,VALID,0,VALID,94.1356,VALID,0,VALID,17.7241,VALID,200,VALID,0.762638,
2000-03-15, 01:41:00,VALID,0,VALID,94.2729,VALID,0.0169808,VALID,17.708,VALID,190,VALID,0.761719,
2000-03-15, 01:42:01,VALID,0,VALID,94.69,VALID,0,VALID,17.6824,VALID,187,VALID,0.907335,
2000-03-15, 01:43:00,VALID,0,VALID,94.6392,VALID,0,VALID,17.6729,VALID,187,VALID,0.797276,
2000-03-15, 01:44:00,VALID,0,VALID,94.877,VALID,0,VALID,17.6598,VALID,187,VALID,0.850361,
2000-03-15, 01:45:00,VALID,0,VALID,94.882,VALID,0,VALID,17.6471,VALID,186,VALID,0.839738,
2000-03-15, 01:46:00,VALID,0,VALID,94.6214,VALID,0,VALID,17.6598,VALID,180,VALID,0.889623,
2000-03-15, 01:47:00,VALID,0,VALID,94.4688,VALID,-0.0169808,VALID,17.7052,VALID,174,VALID,0.921258,
2000-03-15, 01:48:00,VALID,0,VALID,94.2869,VALID,0,VALID,17.7114,VALID,174,VALID,0.955529,
2000-03-15, 01:49:00,VALID,0,VALID,94.1394,VALID,0,VALID,17.7343,VALID,174,VALID,0.912405,
2000-03-15, 01:50:00,VALID,0,VALID,93.8775,VALID,0,VALID,17.734,VALID,178,VALID,0.996311,
2000-03-15, 01:51:00,VALID,0,VALID,94.0402,VALID,-0.0169808,VALID,17.7211,VALID,181,VALID,0.972957,
2000-03-15, 01:52:00,VALID,0,VALID,93.9398,VALID,0,VALID,17.7078,VALID,195,VALID,1.14611,
2000-03-15, 01:53:00,VALID,0,VALID,93.6435,VALID,0,VALID,17.7241,VALID,197,VALID,1.05313,
2000-03-15, 01:54:00,VALID,0,VALID,93.5736,VALID,0,VALID,17.7243,VALID,205,VALID,0.9477,
2000-03-15, 01:55:00,VALID,0,VALID,93.9322,VALID,0,VALID,17.7112,VALID,204,VALID,1.13405,
2000-03-15, 01:56:00,VALID,0,VALID,94.3505,VALID,0.0169808,VALID,17.7114,VALID,205,VALID,1.20112,
2000-03-15, 01:57:00,VALID,0,VALID,94.5489,VALID,-0.0339617,VALID,17.7274,VALID,199,VALID,1.18281,
2000-03-15, 01:58:00,VALID,0,VALID,94.4904,VALID,-0.0169808,VALID,17.7373,VALID,204,VALID,0.891314,
2000-03-15, 01:59:00,VALID,0,VALID,94.7752,VALID,-0.0169808,VALID,17.7603,VALID,208,VALID,0.961806,
2000-03-15, 02:00:00,VALID,0,VALID,94.7816,VALID,0,VALID,17.7857,VALID,209,VALID,0.914063,
2000-03-15, 02:01:00,VALID,0,VALID,94.3912,VALID,-0.0169808,VALID,17.8055,VALID,207,VALID,0.657853,
2000-03-15, 02:02:00,VALID,0,VALID,94.4357,VALID,0,VALID,17.7921,VALID,188,VALID,0.954928,
2000-03-15, 02:03:00,VALID,0,VALID,94.9583,VALID,-0.0169808,VALID,17.7698,VALID,186,VALID,1.06018,
2000-03-15, 02:04:01,VALID,0,VALID,95.3309,VALID,0,VALID,17.7795,VALID,180,VALID,1.0832,
2000-03-15, 02:05:00,VALID,0,VALID,95.481,VALID,-0.0509425,VALID,17.7829,VALID,180,VALID,1.08454,
2000-03-15, 02:06:00,VALID,0,VALID,95.7213,VALID,-0.0509425,VALID,17.7956,VALID,183,VALID,0.94351,
2000-03-15, 02:07:00,VALID,0,VALID,95.6348,VALID,-0.0169808,VALID,17.7956,VALID,175,VALID,0.878906,
2000-03-15, 02:08:00,VALID,0,VALID,95.5344,VALID,-0.0339617,VALID,17.7795,VALID,172,VALID,0.802083,
2000-03-15, 02:09:00,VALID,0,VALID,95.0232,VALID,0,VALID,17.7437,VALID,173,VALID,0.637804,
2000-03-15, 02:10:00,VALID,0,VALID,94.9723,VALID,-0.0169808,VALID,17.6828,VALID,171,VALID,0.760817,
2000-03-15, 02:11:00,VALID,0,VALID,95.8027,VALID,-0.0339617,VALID,17.6411,VALID,167,VALID,0.744191,
2000-03-15, 02:12:00,VALID,0,VALID,96.1079,VALID,-0.0679233,VALID,17.5957,VALID,167,VALID,0.741554,
2000-03-15, 02:13:00,VALID,0,VALID,95.7188,VALID,-0.0509425,VALID,17.541,VALID,166,VALID,0.759215,
2000-03-15, 02:14:00,VALID,0,VALID,95.7951,VALID,-0.0339617,VALID,17.4795,VALID,166,VALID,0.810238,
2000-03-15, 02:15:00,VALID,0,VALID,96.0532,VALID,-0.0509425,VALID,17.4216,VALID,167,VALID,0.801683,
2000-03-15, 02:16:00,VALID,0,VALID,96.8365,VALID,-0.0679233,VALID,17.3826,VALID,169,VALID,0.877841,
2000-03-15, 02:17:00,VALID,0,VALID,97.63,VALID,-0.0339617,VALID,17.4246,VALID,171,VALID,0.98329,
2000-03-15, 02:18:00,VALID,0,VALID,97.8665,VALID,-0.0509425,VALID,17.4797,VALID,171,VALID,1.05329,
2000-03-15, 02:19:00,VALID,0,VALID,97.9263,VALID,-0.0679233,VALID,17.5574,VALID,171,VALID,1.14084,
2000-03-15, 02:20:00,VALID,0,VALID,97.897,VALID,-0.0339617,VALID,17.612,VALID,175,VALID,1.13555,
2000-03-15, 02:21:00,VALID,0,VALID,97.6618,VALID,-0.0849042,VALID,17.6831,VALID,175,VALID,1.21615,
2000-03-15, 02:22:00,VALID,0,VALID,97.2905,VALID,-0.0169808,VALID,17.7442,VALID,180,VALID,1.04215,
2000-03-15, 02:23:00,VALID,0,VALID,96.8925,VALID,-0.0849042,VALID,17.8094,VALID,180,VALID,1.00446,
2000-03-15, 02:24:00,VALID,0,VALID,96.324,VALID,-0.0679233,VALID,17.8152,VALID,188,VALID,0.903711,
2000-03-15, 02:25:00,VALID,0,VALID,95.8777,VALID,-0.0339617,VALID,17.8154,VALID,199,VALID,0.969669,
2000-03-15, 02:26:00,VALID,0,VALID,95.7277,VALID,-0.0679233,VALID,17.787,VALID,196,VALID,0.963108,
2000-03-15, 02:27:01,VALID,0,VALID,95.8294,VALID,-0.0509425,VALID,17.7384,VALID,197,VALID,1.147,
2000-03-15, 02:28:00,VALID,0,VALID,95.8752,VALID,-0.0339617,VALID,17.6962,VALID,200,VALID,1.21034,
2000-03-15, 02:29:00,VALID,0,VALID,96.2503,VALID,-0.0169808,VALID,17.6992,VALID,195,VALID,1.22035,
2000-03-15, 02:30:00,VALID,0,VALID,95.8752,VALID,-0.0169808,VALID,17.6701,VALID,188,VALID,0.918497,
2000-03-15, 02:31:00,VALID,0,VALID,95.7404,VALID,-0.0679233,VALID,17.6247,VALID,178,VALID,0.817383,
2000-03-15, 02:32:00,VALID,0,VALID,96.2935,VALID,-0.0339617,VALID,17.5993,VALID,178,VALID,0.928686,
2000-03-15, 02:33:00,VALID,0,VALID,96.6623,VALID,-0.0509425,VALID,17.5961,VALID,175,VALID,0.905048,
2000-03-15, 02:34:00,VALID,0,VALID,96.8836,VALID,-0.0679233,VALID,17.5765,VALID,177,VALID,0.907399,
2000-03-15, 02:35:00,VALID,0,VALID,96.5695,VALID,-0.0339617,VALID,17.5374,VALID,175,VALID,0.844835,
2000-03-15, 02:36:00,VALID,0,VALID,96.7704,VALID,0.0339617,VALID,17.4982,VALID,169,VALID,0.890408,
2000-03-15, 02:37:00,VALID,0,VALID,97.1964,VALID,0.0339617,VALID,17.479,VALID,170,VALID,0.961338,
2000-03-15, 02:38:00,VALID,0,VALID,97.4202,VALID,0.0339617,VALID,17.4558,VALID,173,VALID,0.964343,
2000-03-15, 02:39:00,VALID,0,VALID,97.6389,VALID,0.0509425,VALID,17.4685,VALID,178,VALID,0.958193,
2000-03-15, 02:40:00,VALID,0,VALID,97.3947,VALID,0.0679233,VALID,17.4431,VALID,181,VALID,0.942708,
2000-03-15, 02:41:00,VALID,0,VALID,97.5041,VALID,0.0509425,VALID,17.4399,VALID,189,VALID,1.0736,
2000-03-15, 02:42:00,VALID,0,VALID,97.4278,VALID,0.101885,VALID,17.4201,VALID,200,VALID,1.04026,
2000-03-15, 02:43:00,VALID,0,VALID,97.63,VALID,0.0679233,VALID,17.4235,VALID,198,VALID,1.2197,
2000-03-15, 02:44:00,VALID,0,VALID,97.7991,VALID,0.101885,VALID,17.4429,VALID,191,VALID,1.20161,
2000-03-15, 02:45:00,VALID,0,VALID,97.8449,VALID,0.0849042,VALID,17.482,VALID,189,VALID,1.15024,
2000-03-15, 02:46:00,VALID,0,VALID,97.7521,VALID,0.0339617,VALID,17.4756,VALID,182,VALID,0.962627,
2000-03-15, 02:47:00,VALID,0,VALID,97.6338,VALID,0.0679233,VALID,17.4562,VALID,183,VALID,0.907031,
2000-03-15, 02:48:00,VALID,0,VALID,97.5689,VALID,0.0679233,VALID,17.4369,VALID,190,VALID,0.93099,
2000-03-15, 02:49:01,VALID,0,VALID,97.5664,VALID,0.0509425,VALID,17.4044,VALID,191,VALID,0.9081,
2000-03-15, 02:50:00,VALID,0,VALID,97.6516,VALID,0,VALID,17.3891,VALID,188,VALID,0.85625,
2000-03-15, 02:51:00,VALID,0,VALID,97.5867,VALID,-0.0509425,VALID,17.3708,VALID,191,VALID,0.790234,
2000-03-15, 02:52:00,VALID,0,VALID,97.321,VALID,-0.0509425,VALID,17.3054,VALID,201,VALID,0.62454,
2000-03-15, 02:53:00,VALID,0,VALID,97.1989,VALID,-0.0509425,VALID,17.2475,VALID,203,VALID,0.632595,
2000-03-15, 02:54:00,VALID,0,VALID,97.2917,VALID,-0.0509425,VALID,17.2217,VALID,211,VALID,0.764597,
2000-03-15, 02:55:00,VALID,0,VALID,97.5422,VALID,-0.0339617,VALID,17.2055,VALID,203,VALID,0.960938,
2000-03-15, 02:56:00,VALID,0,VALID,97.5931,VALID,-0.0509425,VALID,17.203,VALID,203,VALID,0.92488,
2000-03-15, 02:57:00,VALID,0,VALID,97.8894,VALID,-0.0339617,VALID,17.2025,VALID,213,VALID,1.10114,
2000-03-15, 02:58:00,VALID,0,VALID,98.1437,VALID,-0.0679233,VALID,17.2479,VALID,216,VALID,1.37578,
2000-03-15, 02:59:00,VALID,0,VALID,98.1043,VALID,-0.0509425,VALID,17.2961,VALID,210,VALID,1.36639,
2000-03-15, 03:00:01,VALID,0,VALID,97.972,VALID,-0.0169808,VALID,17.3476,VALID,206,VALID,1.20713,
2000-03-15, 03:01:00,VALID,0,VALID,97.7864,VALID,0,VALID,17.3958,VALID,197,VALID,1.05078,
2000-03-15, 03:02:00,VALID,0,VALID,97.5117,VALID,-0.0679233,VALID,17.4642,VALID,192,VALID,1.10113,
2000-03-15, 03:03:00,VALID,0,VALID,97.0781,VALID,-0.0339617,VALID,17.5152,VALID,204,VALID,1.05686,
2000-03-15, 03:04:00,VALID,0,VALID,96.881,VALID,-0.0509425,VALID,17.5514,VALID,204,VALID,1.04728,
2000-03-15, 03:05:00,VALID,0,VALID,96.5339,VALID,-0.0169808,VALID,17.58,VALID,216,VALID,1.29347,
2000-03-15, 03:06:00,VALID,0,VALID,95.6666,VALID,0,VALID,17.6054,VALID,211,VALID,1.14189,
2000-03-15, 03:07:00,VALID,0,VALID,94.8859,VALID,0,VALID,17.6833,VALID,204,VALID,0.807492,
2000-03-15, 03:08:00,VALID,0,VALID,93.9818,VALID,-0.0509425,VALID,17.7287,VALID,201,VALID,0.866571,
2000-03-15, 03:09:00,VALID,0,VALID,93.8584,VALID,0,VALID,17.7608,VALID,202,VALID,0.878005,
2000-03-15, 03:10:00,VALID,0,VALID,93.5125,VALID,0,VALID,17.7642,VALID,197,VALID,0.879735,
2000-03-15, 03:11:01,VALID,0,VALID,92.925,VALID,0,VALID,17.7313,VALID,202,VALID,1.09071,
2000-03-15, 03:12:00,VALID,0,VALID,91.9319,VALID,-0.0339617,VALID,17.7252,VALID,211,VALID,1.23257,
2000-03-15, 03:13:00,VALID,0,VALID,91.2109,VALID,-0.0169808,VALID,17.7868,VALID,214,VALID,1.34459,
2000-03-15, 03:14:00,VALID,0,VALID,90.654,VALID,-0.0169808,VALID,17.8477,VALID,214,VALID,1.11328,
2000-03-15, 03:15:00,VALID,0,VALID,90.4251,VALID,-0.0169808,VALID,17.9095,VALID,212,VALID,0.768012,
2000-03-15, 03:16:00,VALID,0,VALID,90.2305,VALID,-0.0169808,VALID,17.9415,VALID,214,VALID,0.777549,
2000-03-15, 03:17:00,VALID,0,VALID,90.0194,VALID,-0.0169808,VALID,17.9669,VALID,220,VALID,0.823661,
2000-03-15, 03:18:00,VALID,0,VALID,89.8045,VALID,-0.0169808,VALID,17.9936,VALID,216,VALID,1.07305,
2000-03-15, 03:19:00,VALID,0,VALID,89.5833,VALID,-0.0169808,VALID,18.013,VALID,216,VALID,1.07261,
2000-03-15, 03:20:00,VALID,0,VALID,89.6367,VALID,-0.0339617,VALID,18.0222,VALID,209,VALID,1.07595,
2000-03-15, 03:21:00,VALID,0,VALID,89.6519,VALID,0,VALID,18.0192,VALID,211,VALID,1.23623,
2000-03-15, 03:22:01,VALID,0,VALID,89.4434,VALID,0,VALID,18.0289,VALID,215,VALID,1.02103,
2000-03-15, 03:23:00,VALID,0,VALID,89.5693,VALID,-0.0169808,VALID,18.0354,VALID,209,VALID,0.801482,
2000-03-15, 03:24:00,VALID,0,VALID,89.8872,VALID,-0.0169808,VALID,17.9897,VALID,197,VALID,0.908573,
2000-03-15, 03:25:00,VALID,0,VALID,90.0614,VALID,-0.0339617,VALID,17.9388,VALID,194,VALID,1.09687,
2000-03-15, 03:26:00,VALID,0,VALID,90.0538,VALID,-0.0169808,VALID,17.9026,VALID,193,VALID,1.34836,
2000-03-15, 03:27:00,VALID,0,VALID,90.1644,VALID,-0.0679233,VALID,17.9026,VALID,191,VALID,1.1857,
2000-03-15, 03:28:00,VALID,0,VALID,90.2483,VALID,-0.0169808,VALID,17.8763,VALID,200,VALID,1.10202,
2000-03-15, 03:29:00,VALID,0,VALID,90.4022,VALID,-0.0169808,VALID,17.8447,VALID,213,VALID,1.3253,
2000-03-15, 03:30:00,VALID,0,VALID,90.4556,VALID,-0.0339617,VALID,17.841,VALID,212,VALID,1.43815,
2000-03-15, 03:31:00,VALID,0,VALID,90.5255,VALID,-0.0169808,VALID,17.8279,VALID,208,VALID,1.26542,
2000-03-15, 03:32:00,VALID,0,VALID,90.64,VALID,0,VALID,17.8087,VALID,197,VALID,0.98778,
2000-03-15, 03:33:01,VALID,0,VALID,90.6273,VALID,0,VALID,17.7642,VALID,186,VALID,1.44383,
2000-03-15, 03:34:00,VALID,0,VALID,90.7557,VALID,-0.0339617,VALID,17.7216,VALID,179,VALID,1.27524,
2000-03-15, 03:35:00,VALID,0,VALID,91.0202,VALID,0,VALID,17.699,VALID,180,VALID,1.37993,
2000-03-15, 03:36:00,VALID,0,VALID,91.071,VALID,0,VALID,17.7029,VALID,184,VALID,1.31831,
2000-03-15, 03:37:00,VALID,0,VALID,91.0189,VALID,-0.0169808,VALID,17.7089,VALID,191,VALID,1.2133,
2000-03-15, 03:38:00,VALID,0,VALID,90.8739,VALID,0,VALID,17.725,VALID,193,VALID,1.51931,
2000-03-15, 03:39:00,VALID,0,VALID,90.659,VALID,-0.0169808,VALID,17.7414,VALID,193,VALID,1.39263,
2000-03-15, 03:40:00,VALID,0,VALID,90.5026,VALID,-0.0169808,VALID,17.7347,VALID,198,VALID,1.16385,
2000-03-15, 03:41:00,VALID,0,VALID,90.4912,VALID,0,VALID,17.7183,VALID,206,VALID,0.930859,
2000-03-15, 03:42:00,VALID,0,VALID,90.364,VALID,-0.0339617,VALID,17.722,VALID,211,VALID,1.09918,
2000-03-15, 03:43:01,VALID,0,VALID,90.3577,VALID,-0.0169808,VALID,17.7347,VALID,211,VALID,1.15255,
2000-03-15, 03:44:01,VALID,0,VALID,90.3653,VALID,-0.0339617,VALID,17.7513,VALID,211,VALID,1.07969,
2000-03-15, 03:45:00,VALID,0,VALID,90.5179,VALID,0,VALID,17.7319,VALID,203,VALID,0.720508,
2000-03-15, 03:46:00,VALID,0,VALID,90.7582,VALID,-0.0169808,VALID,17.6902,VALID,197,VALID,1.05997,
2000-03-15, 03:47:00,VALID,0,VALID,90.8739,VALID,-0.0169808,VALID,17.6475,VALID,202,VALID,1.02344,
2000-03-15, 03:48:00,VALID,0,VALID,90.9566,VALID,-0.0169808,VALID,17.6187,VALID,207,VALID,0.756373,
2000-03-15, 03:49:00,VALID,0,VALID,90.9337,VALID,-0.0339617,VALID,17.6157,VALID,207,VALID,0.967548,
2000-03-15, 03:50:00,VALID,0,VALID,90.8765,VALID,-0.0169808,VALID,17.6125,VALID,187,VALID,0.852163,
2000-03-15, 03:51:00,VALID,0,VALID,91.1715,VALID,-0.0339617,VALID,17.5668,VALID,173,VALID,0.974662,
2000-03-15, 03:52:00,VALID,0,VALID,91.6789,VALID,-0.0169808,VALID,17.4961,VALID,170,VALID,1.10684,
2000-03-15, 03:53:00,VALID,0,VALID,91.7043,VALID,-0.0679233,VALID,17.4539,VALID,173,VALID,1.123,
2000-03-15, 03:54:00,VALID,0,VALID,91.3432,VALID,-0.0169808,VALID,17.4827,VALID,169,VALID,0.959936,
2000-03-15, 03:55:01,VALID,0,VALID,91.1321,VALID,-0.0509425,VALID,17.5025,VALID,169,VALID,0.945772,
2000-03-15, 03:56:00,VALID,0,VALID,90.9235,VALID,-0.0339617,VALID,17.4958,VALID,182,VALID,0.976128,
2000-03-15, 03:57:00,VALID,0,VALID,90.6451,VALID,-0.0169808,VALID,17.5385,VALID,190,VALID,1.1951,
2000-03-15, 03:58:00,VALID,0,VALID,90.247,VALID,-0.0169808,VALID,17.5608,VALID,191,VALID,1.44371,
2000-03-15, 03:59:00,VALID,0,VALID,89.9851,VALID,-0.0339617,VALID,17.577,VALID,192,VALID,1.26162,
2000-03-15, 04:00:00,VALID,0,VALID,89.741,VALID,0,VALID,17.5929,VALID,191,VALID,1.356,
2000-03-15, 04:01:00,VALID,0,VALID,89.5121,VALID,0,VALID,17.6086,VALID,193,VALID,1.45032,
2000-03-15, 04:02:00,VALID,0,VALID,89.1992,VALID,0,VALID,17.6217,VALID,193,VALID,1.39124,
2000-03-15, 04:03:00,VALID,0,VALID,88.8025,VALID,-0.0169808,VALID,17.6441,VALID,195,VALID,1.39002,